{"data":{"norad_id":64492,"intl_designator":"2025-133W","name":"STARLINK-34522","alt_names":[],"object_type":"PAYLOAD","status":"ACTIVE","operator":null,"country":"US","launch_date":"2025-06-23","launch_site_code":"AFETR","launch_vehicle":null,"mission":null,"orbit_class":"UNKNOWN","rcs_meters":null,"size_class":null,"mass_kg":null,"dimensions":null,"purposes":["comms"],"wikipedia_slug":null,"has_3d_model":false,"image_url":null,"decayed_at":null,"tle_current":{"epoch":"2026-05-25T04:31:57.975744Z","epoch_age_seconds":55560,"freshness":"FRESH","line1":"1 64492U 25133W   26145.18886546  .00024293  00000+0  70480-3 0  9994","line2":"2 64492  53.1598 119.1312 0001287  81.6918 278.4231 15.35412396 52932","mean_motion":15.35412396,"eccentricity":0.0001287,"inclination_deg":53.1598,"raan_deg":119.1312,"arg_perigee_deg":81.6918,"mean_anomaly_deg":278.4231,"bstar":0.0007048,"rev_number":5293,"period_min":93.785878227337,"perigee_km":458.81581036265,"apogee_km":460.57586853552,"semimajor_km":6837.8328394491,"source":"CELESTRAK","updated_at":"2026-05-25T13:38:20.461596Z"}}}